Location: Lynch Observatory
(39.9540°N, 75.1861°W)
Time: 23:58:30
(UTC-04:00)

CAS-4B - Pass Details

Date: 26 April 2024
Orbit: 474 x 492 km, 43.0° (Epoch: 27 May)

Event Time Altitude Azimuth Distance (km) Brightness Sun altitude
Exits shadow 04:07:22 39° 311° (NW) 731 ? -20.7°
Drops below altitude 10° 04:12:13 10° 89° (E) 1,666 ? -20.0°
Enters shadow 05:11:16 -65° 290° (WNW) 12,100 ? -10.6°
Maximum altitude 05:47:30 53° 206° (SSW) 602 ? -4.3°
